Weather in Turkmenbashi

Turkmenistan     40°00′39″N   52°59′26″E
temp.,
°C
wind,
m/s
gust,
m/s
humid.,
%
clouds,
%
prec.,
mm/h
press.,
hPa
HPBL,
m
8 may, sat
sat823:00+16nnw8959100 0.0 1018282
02:00+16nnw6760100 0.0 1019264
05:00+15nnw4568100 0.1 1019193
08:00+15wnw2267100 0.3 1020181
11:00+15sse107384 1.8 1021168
14:00+16ssw316899 0.0 1020469
17:00+17sw326340 0.0 1019495
20:00+17wsw21610 0.0 1018295
9 may, sun
sun923:00+16w21620 0.0 1018149
02:00+16sse01640 0.0 101744
05:00+16e11670 0.0 101611
08:00+17ese126370 0.0 101698
11:00+20se45500 0.0 1015396
14:00+22sse46430 0.0 1013556
17:00+22ssw25420 0.0 1010732
20:00+23sse13412 0.0 1009262
10 may, mon
mon1023:00+23e23404 0.0 100838
02:00+22nnw22393 0.0 100911
05:00+18nnw101362100 0.0 1010237
08:00+17n8117191 0.0 1011218
11:00+18nnw1213655 0.0 1013545
14:00+19nnw121260100 0.0 1014532
17:00+17nnw1314660 0.1 1015581
20:00+14nnw1314742 0.0 1017570
11 may, tue
tue1123:00+13nnw10117834 0.0 1020590
02:00+13nw8107729 0.0 1020659
05:00+13nw578092 0.0 1020523
08:00+13nw4476100 0.0 1020487
11:00+15wnw446499 0.0 1020621
14:00+17wnw4455100 0.0 1019616
17:00+18wnw655051 0.0 1019605
20:00+17nw665396 0.0 1018295
12 may, wed
wed1223:00+17nw6657100 0.0 1019243
02:00+15nnw6761100 0.0 1018288
05:00+15n610596 0.0 1017212
08:00+16nne57545 0.0 1017216
11:00+22n23420 0.0 1017476
14:00+25w333755 0.0 1015993
17:00+24nw75415 0.0 1014383
20:00+21nnw8947100 0.0 1013219